• Em Portugal
  • Lista de países
  • Para 7 dias
  • Temperatura da água
  • Mapas de satélite
  • Mapa do tempo
  • Widgets de tempo
  • user-avatar
    Iniciar Sessão

    Previsão horária em Silkhet

    Hoje, 20 Julho, Sexta-feira

    Tempo Temperatura Precipitação Vento Pressão Humidade
    00:00 +32°C° 0 mm 1 m/s 747 mmHg 75%
    01:00 +31°C° 0,1 mm 1 m/s 746 mmHg 78%
    02:00 +31°C° 0,1 mm 1 m/s 746 mmHg 81%
    03:00 +30°C° 0,1 mm 1 m/s 746 mmHg 84%
    04:00 +30°C° 0,1 mm 1 m/s 746 mmHg 84%
    05:00 +30°C° 0,1 mm 1 m/s 746 mmHg 85%
    06:00 +30°C° 0,1 mm 1 m/s 746 mmHg 85%
    07:00 +32°C° 0 mm 1 m/s 746 mmHg 81%
    08:00 +33°C° 0 mm 1 m/s 747 mmHg 76%
    09:00 +34°C° 0 mm 1 m/s 747 mmHg 71%
    10:00 +35°C° 0,6 mm 1 m/s 746 mmHg 67%
    11:00 +37°C° 0,6 mm 2 m/s 746 mmHg 62%
    12:00 +39°C° 0 mm 2 m/s 746 mmHg 57%
    13:00 +38°C° 3,4 mm 2 m/s 746 mmHg 60%
    14:00 +38°C° 3,4 mm 3 m/s 745 mmHg 64%
    15:00 +37°C° 3,4 mm 4 m/s 745 mmHg 68%
    16:00 +36°C° 0,5 mm 3 m/s 745 mmHg 72%
    17:00 +35°C° 0,5 mm 3 m/s 745 mmHg 75%
    18:00 +34°C° 0 mm 2 m/s 746 mmHg 80%
    19:00 +32°C° 0,5 mm 2 m/s 746 mmHg 81%
    20:00 +32°C° 0,5 mm 2 m/s 747 mmHg 82%
    21:00 +31°C° 0,5 mm 2 m/s 747 mmHg 83%
    22:00 +31°C° 0,7 mm 2 m/s 748 mmHg 83%
    23:00 +30°C° 0,7 mm 2 m/s 748 mmHg 83%

    Amanhã, 21 Julho, Sábado

    Tempo Temperatura Precipitação Vento Pressão Humidade
    00:00 +30°C° 0,7 mm 2 m/s 748 mmHg 83%
    01:00 +30°C° 0,1 mm 2 m/s 748 mmHg 84%
    02:00 +29°C° 0,1 mm 2 m/s 748 mmHg 85%
    03:00 +29°C° 0,1 mm 2 m/s 748 mmHg 86%
    04:00 +29°C° 0 mm 2 m/s 748 mmHg 87%
    05:00 +29°C° 0 mm 2 m/s 748 mmHg 87%
    06:00 +29°C° 0 mm 2 m/s 748 mmHg 87%
    07:00 +30°C° 0 mm 3 m/s 749 mmHg 81%
    08:00 +31°C° 0 mm 3 m/s 749 mmHg 76%
    09:00 +33°C° 0 mm 4 m/s 749 mmHg 71%
    10:00 +35°C° 0,1 mm 3 m/s 749 mmHg 66%
    11:00 +36°C° 0,1 mm 3 m/s 749 mmHg 61%
    12:00 +37°C° 0,1 mm 3 m/s 749 mmHg 57%
    13:00 +37°C° 0,4 mm 3 m/s 748 mmHg 57%
    14:00 +37°C° 0,4 mm 3 m/s 748 mmHg 58%
    15:00 +37°C° 0,4 mm 3 m/s 748 mmHg 58%
    16:00 +36°C° 0,8 mm 2 m/s 748 mmHg 64%
    17:00 +34°C° 0,8 mm 2 m/s 748 mmHg 70%
    18:00 +32°C° 0,8 mm 2 m/s 748 mmHg 76%
    19:00 +31°C° 0,9 mm 2 m/s 748 mmHg 78%
    20:00 +31°C° 0,9 mm 2 m/s 749 mmHg 80%
    21:00 +30°C° 0,9 mm 2 m/s 750 mmHg 83%
    22:00 +29°C° 0,1 mm 2 m/s 750 mmHg 84%
    23:00 +29°C° 0,1 mm 3 m/s 750 mmHg 84%

    Depois de amanhã, 22 Julho, Domingo

    Tempo Temperatura Precipitação Vento Pressão Humidade
    00:00 +29°C° 0,1 mm 3 m/s 750 mmHg 85%
    01:00 +29°C° 0,1 mm 3 m/s 749 mmHg 86%
    02:00 +28°C° 0,1 mm 3 m/s 749 mmHg 87%
    03:00 +28°C° 0,1 mm 3 m/s 749 mmHg 87%
    04:00 +28°C° 0,1 mm 3 m/s 749 mmHg 87%
    05:00 +28°C° 0,1 mm 3 m/s 749 mmHg 88%
    06:00 +28°C° 0,1 mm 3 m/s 749 mmHg 88%
    07:00 +29°C° 0,1 mm 4 m/s 749 mmHg 83%
    08:00 +32°C° 0,1 mm 4 m/s 750 mmHg 78%
    09:00 +33°C° 0,1 mm 4 m/s 750 mmHg 73%
    10:00 +34°C° 0,5 mm 4 m/s 750 mmHg 70%
    11:00 +35°C° 0,5 mm 4 m/s 749 mmHg 67%
    12:00 +35°C° 0,5 mm 4 m/s 749 mmHg 65%
    13:00 +35°C° 1,7 mm 4 m/s 749 mmHg 67%
    14:00 +35°C° 1,7 mm 4 m/s 748 mmHg 70%
    15:00 +34°C° 1,7 mm 4 m/s 748 mmHg 72%
    16:00 +34°C° 1,4 mm 4 m/s 748 mmHg 76%
    17:00 +33°C° 1,4 mm 3 m/s 748 mmHg 79%
    18:00 +31°C° 1,4 mm 3 m/s 748 mmHg 83%
    19:00 +30°C° 0,6 mm 3 m/s 749 mmHg 84%
    20:00 +30°C° 0,6 mm 3 m/s 749 mmHg 86%
    21:00 +29°C° 0,6 mm 3 m/s 750 mmHg 87%
    22:00 +29°C° 0,6 mm 3 m/s 750 mmHg 88%
    23:00 +28°C° 0,6 mm 3 m/s 750 mmHg 89%

    23 Julho, Segunda-feira

    Tempo Temperatura Precipitação Vento Pressão Humidade
    00:00 +28°C° 0,6 mm 3 m/s 750 mmHg 89%
    01:00 +28°C° 1,2 mm 3 m/s 749 mmHg 90%
    02:00 +28°C° 1,2 mm 3 m/s 749 mmHg 91%
    03:00 +27°C° 1,2 mm 3 m/s 749 mmHg 93%
    04:00 +27°C° 1,8 mm 3 m/s 749 mmHg 93%
    05:00 +27°C° 1,8 mm 3 m/s 749 mmHg 93%
    06:00 +27°C° 1,8 mm 3 m/s 749 mmHg 93%
    07:00 +28°C° 1,3 mm 3 m/s 749 mmHg 91%
    08:00 +29°C° 1,3 mm 3 m/s 750 mmHg 89%
    09:00 +29°C° 1,3 mm 3 m/s 750 mmHg 87%
    10:00 +30°C° 0,7 mm 3 m/s 750 mmHg 83%
    11:00 +31°C° 0,7 mm 3 m/s 750 mmHg 80%
    12:00 +33°C° 0,7 mm 3 m/s 750 mmHg 77%
    13:00 +33°C° 1 mm 3 m/s 749 mmHg 77%
    14:00 +33°C° 1 mm 3 m/s 748 mmHg 77%
    15:00 +33°C° 1 mm 3 m/s 748 mmHg 76%
    16:00 +31°C° 1,3 mm 3 m/s 748 mmHg 80%
    17:00 +31°C° 1,3 mm 3 m/s 748 mmHg 83%
    18:00 +30°C° 1,3 mm 3 m/s 748 mmHg 86%
    19:00 +29°C° 1,5 mm 3 m/s 749 mmHg 88%
    20:00 +29°C° 1,5 mm 3 m/s 750 mmHg 89%
    21:00 +29°C° 1,5 mm 3 m/s 750 mmHg 90%
    22:00 +28°C° 1,7 mm 3 m/s 750 mmHg 91%
    23:00 +28°C° 1,7 mm 3 m/s 750 mmHg 92%

    24 Julho, Terça-feira

    Tempo Temperatura Precipitação Vento Pressão Humidade
    00:00 +28°C° 1,7 mm 3 m/s 750 mmHg 93%
    01:00 +28°C° 1,3 mm 3 m/s 750 mmHg 93%
    02:00 +27°C° 1,3 mm 3 m/s 750 mmHg 94%
    03:00 +27°C° 1,3 mm 3 m/s 749 mmHg 95%
    04:00 +27°C° 0,6 mm 3 m/s 749 mmHg 95%
    05:00 +27°C° 0,6 mm 3 m/s 750 mmHg 95%
    06:00 +27°C° 0,6 mm 2 m/s 750 mmHg 95%
    07:00 +28°C° 0,3 mm 3 m/s 750 mmHg 92%
    08:00 +29°C° 0,3 mm 3 m/s 751 mmHg 90%
    09:00 +29°C° 0,3 mm 3 m/s 751 mmHg 87%
    10:00 +30°C° 0,6 mm 3 m/s 751 mmHg 83%
    11:00 +31°C° 0,6 mm 3 m/s 750 mmHg 79%
    12:00 +32°C° 0,6 mm 2 m/s 750 mmHg 75%
    13:00 +32°C° 1,2 mm 2 m/s 750 mmHg 76%
    14:00 +32°C° 1,2 mm 2 m/s 749 mmHg 77%
    15:00 +32°C° 1,2 mm 2 m/s 749 mmHg 78%
    16:00 +31°C° 1,2 mm 2 m/s 749 mmHg 81%
    17:00 +31°C° 1,2 mm 2 m/s 749 mmHg 84%
    18:00 +30°C° 1,2 mm 2 m/s 749 mmHg 87%
    19:00 +30°C° 1,3 mm 2 m/s 749 mmHg 88%
    20:00 +29°C° 1,3 mm 2 m/s 750 mmHg 89%
    21:00 +29°C° 1,3 mm 2 m/s 751 mmHg 90%
    22:00 +28°C° 1,4 mm 3 m/s 750 mmHg 90%
    23:00 +28°C° 1,4 mm 3 m/s 750 mmHg 91%

    25 Julho, Quarta-feira

    Tempo Temperatura Precipitação Vento Pressão Humidade
    00:00 +28°C° 1,4 mm 3 m/s 750 mmHg 91%
    01:00 +28°C° 1,2 mm 3 m/s 750 mmHg 92%
    02:00 +28°C° 1,2 mm 3 m/s 749 mmHg 92%
    03:00 +27°C° 1,2 mm 3 m/s 749 mmHg 93%
    04:00 +27°C° 0,9 mm 3 m/s 749 mmHg 94%
    05:00 +27°C° 0,9 mm 3 m/s 749 mmHg 94%
    06:00 +27°C° 0,9 mm 3 m/s 749 mmHg 95%
    07:00 +28°C° 0,6 mm 3 m/s 750 mmHg 93%
    08:00 +28°C° 0,6 mm 3 m/s 750 mmHg 92%
    09:00 +28°C° 0,6 mm 3 m/s 750 mmHg 91%
    10:00 +29°C° 0,7 mm 3 m/s 750 mmHg 88%
    11:00 +30°C° 0,7 mm 3 m/s 750 mmHg 85%
    12:00 +30°C° 0,7 mm 3 m/s 749 mmHg 82%
    13:00 +31°C° 1,2 mm 3 m/s 749 mmHg 80%
    14:00 +33°C° 1,2 mm 3 m/s 748 mmHg 77%
    15:00 +34°C° 1,2 mm 3 m/s 747 mmHg 75%
    16:00 +33°C° 1,7 mm 3 m/s 747 mmHg 78%
    17:00 +32°C° 1,7 mm 2 m/s 747 mmHg 81%
    18:00 +31°C° 1,7 mm 2 m/s 747 mmHg 84%
    19:00 +30°C° 1,9 mm 3 m/s 748 mmHg 86%
    20:00 +30°C° 1,9 mm 3 m/s 749 mmHg 88%
    21:00 +29°C° 1,9 mm 3 m/s 749 mmHg 89%
    22:00 +29°C° 1,2 mm 3 m/s 749 mmHg 90%
    23:00 +28°C° 1,2 mm 3 m/s 749 mmHg 91%
    Mostrar mais